Погода в Медведеве

Россия / Тюменская область     56°21′22″N   68°29′47″E
темп.,
°C
ветер,
м/с
пор.,
м/с
влажн.,
%
обл.,
%
осадки,
мм/ч
давл.,
гПа
погр.,
м
20 апреля, вт
вт2023:00−5ссв26511 0.0 1033249
02:00−5ссв23500 0.0 1034153
05:00−6с11525 0.0 103418
08:00−4зсз33395 0.0 1034852
11:000зсз45315 0.0 10321129
14:00+4з67315 0.0 10291456
17:00+5з710365 0.0 10271665
20:00+2зюз5105258 0.0 1026190
21 апреля, ср
ср2123:00+1з5126163 0.0 1025239
02:00+1зсз5126777 0.0 1024258
05:000сз49836 0.0 1026188
08:00+3с58768 0.0 1028552
11:00+6с575636 0.0 10291263
14:00+8с56415 0.0 10301452
17:00+8с56385 0.0 10321636
20:00+5всв35525 0.0 1034100
22 апреля, чт
чт2223:00+2в37630 0.0 1037153
02:000вюв38730 0.0 1038183
05:00−1юв48774 0.0 1040203
08:00+2ююв45601 0.0 1042495
11:00+6ююв55461 0.0 1042997
14:00+9ююв55355 0.0 10411343
17:00+9ю563378 0.0 10401432
20:00+6ююв4947100 0.0 1041208
23 апреля, пт
пт2323:00+4ююв51251100 0.0 1041305
02:00+3ююв51356100 0.0 1040311
05:00+2ююв51164100 0.0 1040259
08:00+5ю61152100 0.0 1040425
11:00+10ю7838100 0.0 10391033
14:00+12ю7831100 0.0 10371545
17:00+11ю5735100 0.0 10361599
20:00+9ю3846100 0.0 1036207
24 апреля, сб
сб2423:00+7ююв385499 0.0 1034210
02:00+5ююв495793 0.0 1033208
05:00+4ююв4962100 0.0 1032197
08:00+7ю61048100 0.0 1031412
11:00+11ю7935100 0.0 10301069
14:00+13ю6828100 0.0 10281822
17:00+12ю5734100 0.0 10271071
20:00+9юв4941100 0.0 1027256